Weather History for KMQI - April, 2014

Change the Weather History Date:

Saturday, April 26, 2014

  Actual Average Record
Temperature  
Mean Temperature 64 °F -  
Max Temperature 70 °F 66 °F 86 °F (1990)
Min Temperature 58 °F 53 °F 37 °F (1974)
Degree Days  
Heating Degree Days 1    
Growing Degree Days 14 (Base 50)    
Moisture  
Dew Point 51 °F    
Average Humidity 66    
Maximum Humidity 96    
Minimum Humidity 36    
Precipitation  
Precipitation 0.00 in - - ()
Sea Level Pressure  
Sea Level Pressure 29.88 in    
Wind  
Wind Speed 10 mph (West)    
Max Wind Speed 21 mph    
Max Gust Speed 23 mph    
Visibility 10 miles    
Events      
Averages and records for this station are not official NWS values.
T = Trace of Precipitation, MM = Missing Value Source: NWS Daily Summary

Daily Weather History Graph

Daily Weather History Graph

Search for Another Location

Airport or City:

Trip Planner

Search our weather history database for the weather conditions in past years. The results will help you decide how hot, cold, wet, or windy it might be!

Date:

Astronomy

Apr. 26, 2014 Rise Set
Actual Time 6:16 AM EDT 7:45 PM EDT
Civil Twilight 5:49 AM EDT 8:12 PM EDT
Nautical Twilight 5:16 AM EDT 8:45 PM EDT
Astronomical Twilight 4:42 AM EDT 9:19 PM EDT
Moon 4:32 AM EDT (4/26) 5:16 PM EDT (4/26)
Length of Visible Light 14h 23m
Length of Day
13h 29m
Waning Crescent, 8% of the Moon is Illuminated
Apr 26
Waning Crescent
Apr 29
New
May 6
First Quarter
May 14
Full
May 21
Last Quarter

Hourly Weather History & Observations

Time (EDT) Temp. Dew Point Humidity Pressure Visibility Wind Dir Wind Speed Gust Speed Precip Events Conditions
12:15 AM 60.4 °F 59.2 °F 96% 29.74 in 10.0 mi WSW 8.1 mph - N/A   Clear
12:35 AM 60.6 °F 59.4 °F 96% 29.74 in 10.0 mi West 8.1 mph - N/A   Clear
12:55 AM 60.6 °F 59.4 °F 96% 29.74 in 10.0 mi West 6.9 mph - N/A   Clear
1:15 AM 60.4 °F 59.4 °F 96% 29.74 in 10.0 mi West 6.9 mph - N/A   Clear
1:35 AM 61.0 °F 59.4 °F 94% 29.74 in 10.0 mi West 10.4 mph - N/A   Clear
1:55 AM 61.3 °F 59.2 °F 93% 29.74 in 10.0 mi West 6.9 mph - N/A   Clear
2:15 AM 61.5 °F 58.6 °F 90% 29.74 in 10.0 mi West 9.2 mph - N/A   Clear
2:35 AM 61.0 °F 58.5 °F 91% 29.74 in 10.0 mi WNW 5.8 mph - N/A   Clear
2:55 AM 61.0 °F 58.3 °F 91% 29.74 in 10.0 mi WNW 8.1 mph - N/A   Clear
3:15 AM 61.2 °F 57.9 °F 89% 29.75 in 10.0 mi WNW 8.1 mph - N/A   Clear
3:35 AM 61.2 °F 57.2 °F 87% 29.76 in 10.0 mi NW 9.2 mph 17.3 mph N/A   Clear
3:55 AM 60.4 °F 57.2 °F 89% 29.76 in 10.0 mi NW 9.2 mph - N/A   Clear
4:15 AM 60.3 °F 57.2 °F 90% 29.77 in 10.0 mi NW 9.2 mph 18.4 mph N/A   Clear
4:35 AM 59.9 °F 57.2 °F 91% 29.78 in 10.0 mi NW 9.2 mph - N/A   Clear
4:55 AM 59.9 °F 57.0 °F 90% 29.78 in 10.0 mi NW 9.2 mph - N/A   Clear
5:15 AM 59.5 °F 56.5 °F 90% 29.79 in 10.0 mi NW 9.2 mph - N/A   Clear
5:35 AM 59.5 °F 56.1 °F 88% 29.80 in 10.0 mi NW 8.1 mph - N/A   Clear
5:55 AM 59.4 °F 55.6 °F 87% 29.81 in 10.0 mi NW 11.5 mph 19.6 mph N/A   Clear
6:35 AM 58.6 °F 53.2 °F 82% 29.85 in 10.0 mi NNW 11.5 mph 21.9 mph N/A   Clear
6:55 AM 58.6 °F 50.2 °F 73% 29.87 in 10.0 mi NNW 12.7 mph 20.7 mph N/A   Clear
7:15 AM 58.3 °F 49.5 °F 72% 29.89 in 10.0 mi NNW 12.7 mph 17.3 mph N/A   Clear
7:55 AM 58.5 °F 48.4 °F 69% 29.92 in 10.0 mi NNW 10.4 mph 16.1 mph N/A   Clear
8:15 AM 58.8 °F 47.7 °F 66% 29.93 in 10.0 mi North 11.5 mph 18.4 mph N/A   Clear
8:35 AM 59.4 °F 47.1 °F 64% 29.94 in 10.0 mi NNW 8.1 mph 18.4 mph N/A   Clear
8:55 AM 59.5 °F 46.2 °F 61% 29.94 in 10.0 mi NNW 10.4 mph 17.3 mph N/A   Clear
9:15 AM 60.1 °F 46.8 °F 61% 29.95 in 10.0 mi NNW 10.4 mph 16.1 mph N/A   Clear
9:35 AM 60.3 °F 49.1 °F 67% 29.96 in 10.0 mi NW 11.5 mph - N/A   Clear
9:55 AM 60.8 °F 48.4 °F 64% 29.96 in 10.0 mi NNW 9.2 mph - N/A   Clear
10:15 AM 60.6 °F 47.5 °F 62% 29.97 in 10.0 mi NNW 11.5 mph 16.1 mph N/A   Clear
10:35 AM 61.2 °F 47.3 °F 60% 29.97 in 10.0 mi NNW 9.2 mph 16.1 mph N/A   Clear
10:55 AM 61.9 °F 47.3 °F 59% 29.97 in 10.0 mi NNW 8.1 mph - N/A   Clear
11:15 AM 63.0 °F 47.3 °F 57% 29.98 in 10.0 mi NW 10.4 mph 16.1 mph N/A   Clear
11:35 AM 63.5 °F 46.9 °F 55% 29.97 in 10.0 mi NW 9.2 mph - N/A   Clear
11:55 AM 63.1 °F 45.1 °F 52% 29.97 in 10.0 mi NNW 9.2 mph - N/A   Clear
12:15 PM 63.7 °F 45.9 °F 52% 29.97 in 10.0 mi NW 9.2 mph - N/A   Clear
12:35 PM 64.6 °F 44.4 °F 48% 29.96 in 10.0 mi WNW 10.4 mph 17.3 mph N/A   Clear
12:55 PM 66.0 °F 44.6 °F 46% 29.95 in 10.0 mi NNW 10.4 mph 16.1 mph N/A   Clear
1:15 PM 65.5 °F 43.0 °F 44% 29.95 in 10.0 mi NW 10.4 mph - N/A   Clear
1:35 PM 66.6 °F 42.8 °F 42% 29.95 in 10.0 mi WNW 9.2 mph - N/A   Clear
1:55 PM 67.1 °F 42.4 °F 41% 29.94 in 10.0 mi West 5.8 mph - N/A   Clear
2:15 PM 67.6 °F 41.7 °F 39% 29.94 in 10.0 mi WNW 6.9 mph - N/A   Clear
2:35 PM 68.7 °F 42.4 °F 39% 29.93 in 10.0 mi NW 4.6 mph - N/A   Clear
2:55 PM 68.4 °F 40.6 °F 36% 29.93 in 10.0 mi West 5.8 mph - N/A   Clear
3:15 PM 68.7 °F 41.7 °F 37% 29.93 in 10.0 mi WNW 5.8 mph - N/A   Clear
3:35 PM 70.3 °F 42.1 °F 36% 29.92 in 10.0 mi West 6.9 mph - N/A   Clear
3:55 PM 68.9 °F 41.5 °F 37% 29.92 in 10.0 mi SSW 5.8 mph - N/A   Clear
4:15 PM 69.6 °F 43.9 °F 39% 29.92 in 10.0 mi SSW 15.0 mph - N/A   Clear
4:35 PM 66.2 °F 52.2 °F 61% 29.91 in 10.0 mi SSW 11.5 mph - N/A   Clear
4:55 PM 66.0 °F 51.6 °F 60% 29.91 in 10.0 mi SSW 15.0 mph - N/A   Clear
5:15 PM 66.0 °F 52.5 °F 62% 29.91 in 10.0 mi South 12.7 mph 18.4 mph N/A   Clear
5:35 PM 66.6 °F 52.0 °F 59% 29.91 in 10.0 mi South 12.7 mph - N/A   Clear
5:55 PM 67.1 °F 51.3 °F 57% 29.91 in 10.0 mi South 13.8 mph - N/A   Clear
6:15 PM 67.6 °F 53.1 °F 59% 29.90 in 10.0 mi SSW 15.0 mph - N/A   Clear
6:35 PM 69.6 °F 50.5 °F 51% 29.90 in 10.0 mi SW 17.3 mph - N/A   Scattered Clouds
6:55 PM 68.5 °F 51.6 °F 55% 29.90 in 10.0 mi SSW 12.7 mph - N/A   Clear
7:15 PM 67.5 °F 51.6 °F 57% 29.90 in 10.0 mi SSW 15.0 mph - N/A   Clear
7:35 PM 66.9 °F 51.1 °F 57% 29.90 in 10.0 mi SW 17.3 mph - N/A   Clear
7:55 PM 65.7 °F 52.7 °F 63% 29.90 in 10.0 mi SW 20.7 mph - N/A   Clear
8:15 PM 64.4 °F 51.1 °F 62% 29.91 in 10.0 mi SW 16.1 mph - N/A   Clear
8:35 PM 63.7 °F 50.4 °F 62% 29.91 in 10.0 mi SW 16.1 mph - N/A   Clear
8:55 PM 63.5 °F 50.2 °F 62% 29.91 in 10.0 mi SW 16.1 mph - N/A   Clear
9:15 PM 63.5 °F 51.3 °F 64% 29.91 in 10.0 mi SW 16.1 mph - N/A   Clear
9:35 PM 63.5 °F 51.6 °F 65% 29.91 in 10.0 mi SW 15.0 mph - N/A   Clear
10:15 PM 62.8 °F 52.2 °F 68% 29.92 in 10.0 mi SW 17.3 mph - N/A   Clear
10:35 PM 62.6 °F 52.0 °F 68% 29.91 in 10.0 mi SW 19.6 mph 23.0 mph N/A   Clear
10:55 PM 62.6 °F 51.6 °F 67% 29.91 in 10.0 mi SW 17.3 mph - N/A   Clear
11:15 PM 62.2 °F 51.4 °F 68% 29.91 in 10.0 mi WSW 17.3 mph - N/A   Clear
11:35 PM 61.9 °F 51.8 °F 69% 29.91 in 10.0 mi WSW 16.1 mph - N/A   Clear
11:55 PM 62.2 °F 51.3 °F 67% 29.91 in 10.0 mi WSW 17.3 mph 21.9 mph N/A   Clear